Weather History for Bartow, FL

Change the Weather History Date:

Friday, October 21, 2011

  Actual Average Record
Temperature  
Mean Temperature 60 °F -  
Max Temperature 73 °F 84 °F 90 °F (1938)
Min Temperature 48 °F 62 °F 44 °F (1989)
Degree Days  
Heating Degree Days 4    
Growing Degree Days 10 (Base 50)    
Moisture  
Dew Point 47 °F    
Average Humidity 73    
Maximum Humidity 100    
Minimum Humidity 35    
Precipitation  
Precipitation 0.00 in - - ()
Sea Level Pressure  
Sea Level Pressure 30.11 in    
Wind  
Wind Speed 1 mph (NNW)    
Max Wind Speed 10 mph    
Max Gust Speed -    
Visibility 10 miles    
Events      
Averages and records for this station are not official NWS values.
T = Trace of Precipitation, MM = Missing Value Source: NWS Daily Summary

Daily Weather History Graph

Daily Weather History Graph

Search for Another Location

Airport:

Trip Planner

Search our weather history database for the weather conditions in past years. The results will help you decide how hot, cold, wet, or windy it might be!

Date:

Astronomy

Oct. 21, 2011 Rise Set
Actual Time 7:30 AM EDT 6:52 PM EDT
Civil Twilight 7:07 AM EDT 7:16 PM EDT
Nautical Twilight 6:39 AM EDT 7:43 PM EDT
Astronomical Twilight 6:12 AM EDT 8:10 PM EDT
Moon 1:50 AM EDT (10/21) 3:08 PM EDT (10/21)
Length of Visible Light 12h 08m
Length of Day
11h 21m
Waning Crescent, 34% of the Moon is Illuminated
Oct 21
Waning Crescent
Oct 26
New
Nov 2
First Quarter
Nov 10
Full
Nov 18
Last Quarter

Hourly Weather History & Observations

Time (EDT) Temp. Dew Point Humidity Pressure Visibility Wind Dir Wind Speed Gust Speed Precip Events Conditions
12:15 AM 50.0 °F 50.0 °F 100% 30.11 in 10.0 mi Calm Calm - N/A   Clear
12:55 AM 50.0 °F 50.0 °F 100% 30.11 in 10.0 mi Calm Calm - N/A   Clear
1:15 AM 48.2 °F 48.2 °F 100% 30.11 in 10.0 mi Calm Calm - N/A   Clear
1:35 AM 50.0 °F 50.0 °F 100% 30.11 in 10.0 mi Calm Calm - N/A   Clear
1:55 AM 48.2 °F 48.2 °F 100% 30.11 in 10.0 mi Calm Calm - N/A   Clear
2:15 AM 48.2 °F 48.2 °F 100% 30.11 in 10.0 mi Calm Calm - N/A   Clear
2:35 AM 48.2 °F 48.2 °F 100% 30.11 in 10.0 mi Calm Calm - N/A   Clear
2:55 AM 48.2 °F 48.2 °F 100% 30.11 in 10.0 mi Calm Calm - N/A   Clear
3:15 AM 48.2 °F 48.2 °F 100% 30.11 in 10.0 mi Calm Calm - N/A   Clear
3:35 AM 50.0 °F 50.0 °F 100% 30.11 in 10.0 mi Calm Calm - N/A   Clear
3:55 AM 48.2 °F 48.2 °F 100% 30.11 in 10.0 mi Calm Calm - N/A   Clear
4:15 AM 48.2 °F 48.2 °F 100% 30.11 in 10.0 mi Calm Calm - N/A   Clear
4:35 AM 48.2 °F 48.2 °F 100% 30.11 in 10.0 mi Calm Calm - N/A   Clear
4:55 AM 48.2 °F 48.2 °F 100% 30.12 in 10.0 mi Calm Calm - N/A   Clear
5:15 AM 48.2 °F 48.2 °F 100% 30.12 in 10.0 mi Calm Calm - N/A   Clear
5:35 AM 48.2 °F 48.2 °F 100% 30.12 in 10.0 mi Calm Calm - N/A   Clear
5:55 AM 48.2 °F 48.2 °F 100% 30.12 in 9.0 mi Calm Calm - N/A   Clear
6:15 AM 48.2 °F 48.2 °F 100% 30.12 in 9.0 mi Calm Calm - N/A   Clear
6:35 AM 48.2 °F 48.2 °F 100% 30.13 in 8.0 mi Calm Calm - N/A   Clear
6:55 AM 48.2 °F 48.2 °F 100% 30.14 in 7.0 mi Calm Calm - N/A   Clear
7:15 AM 48.2 °F 48.2 °F 100% 30.14 in 8.0 mi Calm Calm - N/A   Clear
7:30 AM 50.0 °F 50.0 °F 100% 30.14 in 10.0 mi NNE 4.6 mph - N/A   Partly Cloudy
7:35 AM 50.0 °F 50.0 °F 100% 30.15 in 7.0 mi Calm Calm - N/A   Clear
8:50 AM 57.2 °F 55.4 °F 94% 30.16 in 15.0 mi Calm Calm - N/A   Partly Cloudy
9:51 AM 62.6 °F 46.4 °F 55% 30.17 in 15.0 mi NNE 5.8 mph - N/A   Clear
11:50 AM 66.2 °F 42.8 °F 43% 30.17 in 15.0 mi North 8.1 mph - N/A   Clear
12:54 PM 69.8 °F 44.6 °F 40% 30.15 in 15.0 mi North 6.9 mph - N/A   Clear
1:50 PM 71.6 °F 44.6 °F 38% 30.12 in 15.0 mi NNW 6.9 mph - N/A   Clear
2:50 PM 73.4 °F 44.6 °F 36% 30.09 in 15.0 mi NNW 6.9 mph - N/A   Clear
3:35 PM 73.4 °F 44.6 °F 36% 30.07 in 10.0 mi WNW 10.4 mph - N/A   Clear
3:55 PM 73.4 °F 44.6 °F 36% 30.07 in 9.0 mi WNW 10.4 mph - N/A   Clear
4:15 PM 71.6 °F 44.6 °F 38% 30.06 in 10.0 mi WNW 5.8 mph - N/A   Clear
4:35 PM 71.6 °F 42.8 °F 35% 30.06 in 10.0 mi WNW 8.1 mph - N/A   Clear
4:55 PM 71.6 °F 44.6 °F 38% 30.06 in 9.0 mi NW 8.1 mph - N/A   Clear
5:15 PM 71.6 °F 44.6 °F 38% 30.06 in 9.0 mi NW 4.6 mph - N/A   Clear
5:35 PM 71.6 °F 44.6 °F 38% 30.07 in 10.0 mi NW 8.1 mph - N/A   Clear
5:55 PM 69.8 °F 44.6 °F 40% 30.07 in 9.0 mi NW 4.6 mph - N/A   Clear
6:15 PM 69.8 °F 44.6 °F 40% 30.07 in 9.0 mi NW 4.6 mph - N/A   Clear
6:35 PM 69.8 °F 44.6 °F 40% 30.07 in 7.0 mi Calm Calm - N/A   Clear
6:55 PM 66.2 °F 46.4 °F 49% 30.07 in 7.0 mi Calm Calm - N/A   Clear
7:15 PM 64.4 °F 46.4 °F 52% 30.08 in 1.0 mi Calm Calm - N/A   Haze
7:35 PM 62.6 °F 46.4 °F 55% 30.08 in 2.5 mi Calm Calm - N/A   Haze
7:55 PM 59.0 °F 46.4 °F 63% 30.08 in 10.0 mi Calm Calm - N/A   Clear
8:15 PM 59.0 °F 48.2 °F 67% 30.09 in 10.0 mi Calm Calm - N/A   Clear
8:35 PM 60.8 °F 48.2 °F 63% 30.09 in 10.0 mi Calm Calm - N/A   Clear
8:55 PM 59.0 °F 46.4 °F 63% 30.10 in 10.0 mi Calm Calm - N/A   Clear
9:15 PM 59.0 °F 46.4 °F 63% 30.10 in 10.0 mi NW 6.9 mph - N/A   Clear
9:35 PM 57.2 °F 46.4 °F 67% 30.10 in 10.0 mi Calm Calm - N/A   Clear
9:55 PM 57.2 °F 46.4 °F 67% 30.11 in 10.0 mi NW 3.5 mph - N/A   Clear
10:15 PM 55.4 °F 46.4 °F 72% 30.11 in 10.0 mi Calm Calm - N/A   Clear
10:35 PM 55.4 °F 46.4 °F 72% 30.11 in 10.0 mi Calm Calm - N/A   Clear
10:55 PM 55.4 °F 46.4 °F 72% 30.11 in 10.0 mi Calm Calm - N/A   Clear
11:15 PM 53.6 °F 46.4 °F 77% 30.11 in 10.0 mi Calm Calm - N/A   Clear
11:35 PM 55.4 °F 46.4 °F 72% 30.10 in 10.0 mi North 3.5 mph - N/A   Clear
11:55 PM 55.4 °F 46.4 °F 72% 30.10 in 10.0 mi Calm Calm - N/A   Clear